CW5439 Weather Reports


Display with metric or nautical units.
time (UTC)temp
F
wind
direction
speed
MPH
gust
MPH
rain 1hr
in
rain 24hr
in
rain mn
in
humidity
%
barometer
mb
20260504222706 44 217 5.0 12.0 0.00 0.02 0.02 86 1013.1
20260504222209 44 228 4.0 7.0 0.00 0.02 0.02 86 1013.2
20260504221729 45 253 3.0 7.0 0.00 0.02 0.02 85 1013.2
20260504221205 45 234 2.0 5.0 0.00 0.02 0.02 85 1013.2
20260504220705 45 253 2.0 5.0 0.00 0.02 0.02 85 1013.2
20260504220206 45 232 2.0 7.0 0.00 0.02 0.02 85 1013.2
20260504215205 45 245 3.0 7.0 0.00 0.02 0.02 85 1013.2
20260504214705 45 247 3.0 7.0 0.00 0.02 0.02 84 1013.2
20260504214205 46 217 3.0 7.0 0.00 0.02 0.02 84 1013.3
20260504213705 46 223 3.0 5.0 0.00 0.02 0.02 84 1013.3
20260504213205 46 220 3.0 5.0 0.00 0.02 0.02 84 1013.3
20260504212705 46 240 3.0 8.0 0.00 0.02 0.02 83 1013.3
20260504211705 46 262 3.0 8.0 0.00 0.02 0.02 83 1013.3
20260504211221 46 264 3.0 11.0 0.00 0.02 0.02 83 1013.2
20260504210705 47 239 4.0 11.0 0.00 0.02 0.02 83 1013.2
20260504210208 47 244 4.0 11.0 0.00 0.02 0.02 83 1013.2
20260504205705 47 238 4.0 7.0 0.00 0.02 0.02 83 1013.2
20260504205205 47 237 4.0 7.0 0.00 0.02 0.02 82 1013.3
20260504204711 47 258 4.0 9.0 0.00 0.02 0.02 82 1013.4
20260504204206 47 223 4.0 9.0 0.00 0.02 0.02 82 1013.4
20260504203205 48 245 3.0 8.0 0.00 0.02 0.02 81 1013.4
20260504202205 48 248 4.0 9.0 0.00 0.02 0.02 81 1013.3
20260504201706 48 244 4.0 10.0 0.00 0.02 0.02 80 1013.3
20260504201205 48 216 4.0 10.0 0.00 0.02 0.02 80 1013.2
20260504200705 49 246 4.0 10.0 0.00 0.02 0.02 79 1013.2
20260504200226 49 238 4.0 10.0 0.00 0.02 0.02 79 1013.1
20260504195705 49 254 4.0 9.0 0.00 0.02 0.02 78 1013.1
20260504195208 49 240 4.0 9.0 0.00 0.02 0.02 78 1013.1
20260504194705 50 249 5.0 10.0 0.00 0.02 0.02 77 1013.1
20260504194205 50 225 4.0 11.0 0.00 0.02 0.02 77 1013.1
20260504193205 51 242 4.0 11.0 0.00 0.02 0.02 76 1012.9
20260504192206 51 248 5.0 11.0 0.00 0.02 0.02 75 1012.9
20260504191705 51 250 6.0 13.0 0.00 0.02 0.02 75 1012.9
20260504191205 52 259 6.0 14.0 0.00 0.02 0.02 74 1012.8
20260504190705 52 250 7.0 14.0 0.00 0.02 0.02 73 1012.8
20260504190205 53 0 8.0 14.0 0.00 0.02 0.02 72 1012.8
20260504185705 53 297 8.0 14.0 0.00 0.02 0.02 72 1012.8
20260504185205 53 272 8.0 13.0 0.00 0.02 0.02 71 1012.8
20260504184705 54 251 8.0 14.0 0.00 0.02 0.02 71 1012.8
20260504184205 54 234 8.0 14.0 0.00 0.02 0.02 72 1012.7
20260504183705 54 263 8.0 14.0 0.00 0.02 0.02 71 1012.6
20260504183205 54 198 8.0 14.0 0.00 0.02 0.02 71 1012.6
20260504182206 54 255 7.0 16.0 0.00 0.02 0.02 70 1012.5
20260504181706 54 261 7.0 16.0 0.00 0.02 0.02 70 1012.5
20260504181205 54 263 8.0 15.0 0.00 0.02 0.02 69 1012.5
20260504175706 55 261 8.0 15.0 0.00 0.02 0.02 69 1012.5
20260504175205 55 248 8.0 15.0 0.00 0.02 0.02 67 1012.4
20260504174705 55 252 9.0 16.0 0.00 0.02 0.02 66 1012.4
20260504174206 56 225 9.0 16.0 0.00 0.02 0.02 64 1012.4
20260504173705 56 225 8.0 16.0 0.00 0.02 0.02 63 1012.5
20260504173205 57 281 8.0 15.0 0.00 0.02 0.02 62 1012.4
20260504172205 58 280 8.0 17.0 0.00 0.02 0.02 61 1012.4
20260504171705 58 260 9.0 17.0 0.00 0.02 0.02 60 1012.5
20260504171205 58 236 9.0 17.0 0.00 0.02 0.02 58 1012.5
20260504170728 58 267 8.0 15.0 0.00 0.02 0.02 59 1012.4
20260504160205 57 239 7.0 13.0 0.00 0.02 0.02 59 1012.5
20260504150705 57 277 7.0 13.0 0.00 0.02 0.02 59 1012.6
20260504150205 57 263 7.0 11.0 0.00 0.02 0.02 60 1012.6
20260504141205 59 223 6.0 12.0 0.00 0.02 0.02 59 1012.7
20260504140705 59 250 7.0 13.0 0.00 0.02 0.02 58 1012.7
20260504140205 59 265 7.0 14.0 0.00 0.02 0.02 58 1012.7
20260504130705 59 237 7.0 14.0 0.00 0.02 0.02 59 1012.8
20260504130205 59 227 7.0 15.0 0.00 0.02 0.02 61 1012.8
20260504120205 56 242 9.0 18.0 0.00 0.02 0.02 61 1012.9
20260504110227 57 282 9.0 14.0 0.00 0.02 0.02 62 1012.9
20260504100205 56 293 8.0 14.0 0.00 0.02 0.02 71 1012.8
20260504081705 53 251 5.0 12.0 0.00 0.02 0.02 83 1013.1
20260504081205 52 265 5.0 10.0 0.00 0.02 0.02 82 1013.0
20260504080704 53 281 5.0 12.0 0.00 0.02 0.02 86 1013.0
20260504070205 48 254 4.0 8.0 0.00 0.02 0.02 93 1012.9
20260504060205 46 206 4.0 6.0 0.00 0.02 0.02 94 1012.7
20260504050205 46 227 2.0 4.0 0.00 0.02 0.02 94 1012.8
20260504045705 46 219 2.0 4.0 0.00 0.02 0.02 94 1012.8
20260504045206 46 221 2.0 4.0 0.00 0.02 0.02 94 1012.9
20260504044205 46 202 2.0 4.0 0.00 0.02 0.02 94 1012.8
20260504043705 45 194 2.0 4.0 0.00 0.02 0.02 94 1012.9
20260504043205 46 184 2.0 4.0 0.00 0.03 0.02 94 1012.8
20260504042706 45 168 2.0 4.0 0.00 0.03 0.02 94 1012.9
20260504042205 45 196 2.0 4.0 0.00 0.03 0.02 94 1012.9
20260504041205 45 186 1.0 4.0 0.00 0.04 0.02 94 1012.9
20260504040705 45 184 1.0 2.0 0.00 0.04 0.02 94 1012.9
20260504040205 45 113 1.0 2.0 0.00 0.04 0.02 94 1012.9
20260504035705 45 113 0.0 1.0 0.00 0.04 0.02 94 1012.9
20260504035206 45 113 0.0 1.0 0.00 0.05 0.02 94 1013.0
20260504034705 45 113 0.0 1.0 0.00 0.05 0.02 94 1013.1
20260504034206 45 113 0.0 0.0 0.00 0.05 0.02 94 1013.1
20260504033707 45 113 0.0 1.0 0.00 0.05 0.02 94 1013.2
20260504033205 45 113 0.0 1.0 0.00 0.06 0.02 93 1013.1
20260504032708 45 113 0.0 1.0 0.00 0.06 0.02 93 1013.1
20260504031705 45 113 0.0 0.0 0.00 0.06 0.02 93 1013.2
20260504031205 45 113 0.0 1.0 0.00 0.06 0.02 93 1013.1
20260504030206 45 113 0.0 0.0 0.00 0.07 0.02 93 1013.1
20260504025705 45 113 0.0 0.0 0.00 0.08 0.02 93 1013.1
20260504025205 45 113 0.0 0.0 0.00 0.08 0.02 93 1013.1
20260504024705 45 113 0.0 0.0 0.00 0.09 0.02 93 1013.1
20260504024205 45 113 0.0 0.0 0.01 0.09 0.02 93 1013.0
20260504023704 45 113 0.0 0.0 0.01 0.09 0.02 93 1013.1
20260504023205 45 113 0.0 1.0 0.01 0.10 0.02 93 1013.1
20260504022706 45 113 0.0 1.0 0.01 0.10 0.02 93 1013.2
20260504021205 45 113 0.0 1.0 0.01 0.11 0.02 93 1013.1
20260504020205 45 113 0.0 1.0 0.01 0.11 0.02 93 1013.1
20260504015705 45 113 0.0 1.0 0.01 0.12 0.02 93 1013.1
20260504015206 45 113 0.0 1.0 0.01 0.12 0.02 93 1013.2
20260504014705 45 113 0.0 0.0 0.01 0.12 0.02 93 1013.2
20260504014205 45 113 0.0 0.0 0.00 0.11 0.01 93 1013.1
20260504013705 45 113 0.0 0.0 0.00 0.11 0.01 93 1013.2
20260504013205 45 113 0.0 0.0 0.00 0.12 0.01 93 1013.1
20260504012705 45 113 0.0 0.0 0.00 0.12 0.01 93 1013.1
20260504012206 45 113 0.0 1.0 0.00 0.13 0.01 93 1013.0
20260504011705 45 113 0.0 1.0 0.00 0.13 0.01 93 1013.0
20260504010705 45 113 0.0 2.0 0.00 0.13 0.01 93 1013.1
20260504010206 45 113 0.0 2.0 0.00 0.13 0.01 93 1013.1
20260504005205 45 113 1.0 2.0 0.00 0.13 0.01 92 1013.0
20260504004705 45 113 0.0 2.0 0.00 0.13 0.01 92 1013.0
20260504004207 45 113 0.0 2.0 0.01 0.13 0.01 92 1012.9
20260504003705 45 113 0.0 2.0 0.01 0.13 0.01 92 1012.9
20260504003205 45 113 0.0 3.0 0.01 0.13 0.01 92 1013.0
20260504002705 45 113 1.0 3.0 0.01 0.14 0.01 92 1013.0
20260504002205 45 113 1.0 2.0 0.01 0.14 0.01 92 1013.0
20260504001705 45 113 0.0 2.0 0.01 0.14 0.01 92 1013.0
20260504001208 45 113 0.0 2.0 0.01 0.14 0.01 92 1013.0
20260504000706 45 113 0.0 2.0 0.01 0.14 0.01 92 1012.9
20260504000205 45 113 1.0 2.0 0.01 0.14 0.01 92 1013.0
20260503235705 45 113 1.0 2.0 0.01 0.14 0.01 92 1013.0
20260503235206 45 113 0.0 1.0 0.01 0.14 0.01 92 1013.1
20260503234705 45 113 0.0 1.0 0.01 0.14 0.01 92 1013.1
20260503234207 45 113 0.0 0.0 0.00 0.13 0.00 92 1013.1
20260503233708 45 113 0.0 0.0 0.00 0.13 0.00 91 1013.1
20260503233205 45 113 0.0 0.0 0.00 0.13 0.00 91 1013.1
20260503232705 45 113 0.0 1.0 0.00 0.13 0.00 91 1013.1
20260503232206 45 113 0.0 1.0 0.00 0.13 0.00 91 1013.2
20260503231717 45 113 0.0 1.0 0.00 0.13 0.00 91 1013.1
20260503231223 45 113 0.0 1.0 0.00 0.13 0.00 91 1013.1
20260503230705 45 113 0.0 1.0 0.00 0.13 0.00 91 1013.1
20260503230207 45 113 0.0 0.0 0.00 0.13 0.13 91 1013.1
20260503225705 45 113 0.0 1.0 0.00 0.13 0.13 91 1013.1
20260503225205 45 113 0.0 1.0 0.00 0.13 0.13 91 1013.0
20260503224205 45 113 0.0 1.0 0.00 0.13 0.13 91 1013.0
20260503223205 45 113 0.0 1.0 0.00 0.13 0.13 91 1013.0